This is the latest recevied weather packets stored in our database for station/object KC2GYU. If no packets are shown the sender has not sent any weather packets the latest 10 day(s).
| Time | Temp. | Humidity | Pressure | Rain* | Wind** | Luminosity | Snow |
|---|---|---|---|---|---|---|---|
| 1777558400 | 13.89° C | 93% | 1008.4 hPa | 0 mm | - | 186 W/m² | - |
| 1777558096 | 13.33° C | 95% | 1008.4 hPa | 0 mm | - | 384 W/m² | - |
| 1777557793 | 13.33° C | 96% | 1008.5 hPa | 0 mm | - | 197 W/m² | - |
| 1777557489 | 13.33° C | 96% | 1008.7 hPa | 0 mm | - | 349 W/m² | - |
| 1777557186 | 12.78° C | 98% | 1008.7 hPa | 0 mm | - | 243 W/m² | - |
| 1777556881 | 12.22° C | 98% | 1008.6 hPa | 0 mm | - | 216 W/m² | - |
| 1777556577 | 12.22° C | 99% | 1008.7 hPa | 0 mm | - | 239 W/m² | - |
| 1777556277 | 12.22° C | 99% | 1008.4 hPa | 0 mm | - | 239 W/m² | - |
| 1777555974 | 11.67° C | 99% | 1008.4 hPa | 0 mm | - | 202 W/m² | - |
| 1777555669 | 12.22° C | 99% | 1008.2 hPa | 0 mm | - | 107 W/m² | - |
| 1777555366 | 12.22° C | 99% | 1008.3 hPa | 0 mm | - | 189 W/m² | - |
| 1777555062 | 12.22° C | 99% | 1008.2 hPa | 0 mm | - | 263 W/m² | - |
| 1777554759 | 11.67° C | 99% | 1008.1 hPa | 0 mm | - | 221 W/m² | - |
| 1777554457 | 11.67° C | 99% | 1008.2 hPa | 0 mm | - | 161 W/m² | - |
| 1777554152 | 12.22° C | 99% | 1008.4 hPa | 0 mm | - | 155 W/m² | - |
| 1777553850 | 12.22° C | 99% | 1008.3 hPa | 0 mm | - | 139 W/m² | - |
| 1777553546 | 12.22° C | 99% | 1008.3 hPa | 0 mm | - | 147 W/m² | - |
| 1777553243 | 12.78° C | 99% | 1008.3 hPa | 0 mm | - | 198 W/m² | - |
| 1777552938 | 12.22° C | 99% | 1008.3 hPa | 0 mm | - | 278 W/m² | - |
| 1777552633 | 11.67° C | 99% | 1008.2 hPa | 0 mm | - | 322 W/m² | - |
| 1777552330 | 11.67° C | 99% | 1008.3 hPa | 0 mm | - | 227 W/m² | - |
| 1777552026 | 11.67° C | 99% | 1008.2 hPa | 0 mm | - | 196 W/m² | - |
| 1777551724 | 11.67° C | 99% | 1008.3 hPa | 0 mm | - | 185 W/m² | - |
| 1777551421 | 11.67° C | 99% | 1008.3 hPa | 0 mm | - | 223 W/m² | - |
| 1777551117 | 11.11° C | 99% | 1007.9 hPa | 0 mm | - | 172 W/m² | - |
* Rain latest hour (hover to see other rain measurements)
** Current wind speed in m/s (hover to see current wind gust speed)